NN5DX-13 Weather Reports


time (UTC)temp
F
wind
direction
speed
knots
gust
knots
rain 1hr
in
rain 24hr
in
rain mn
in
humidity
%
barometer
mb
20260506135516 67 0.0 0.0 0.00 0.00 0.00 50 1012.7
20260506135016 67 0.0 0.0 0.00 0.00 0.00 47 1012.7
20260506134516 67 0.0 0.0 0.00 0.00 0.00 40 1012.5
20260506134017 67 0.0 0.0 0.00 0.00 0.00 40 1012.5
20260506133516 67 0.0 0.0 0.00 0.00 0.00 41 1012.6
20260506133016 67 0.0 0.0 0.00 0.00 0.00 40 1012.3
20260506132516 66 0.0 0.0 0.00 0.00 0.00 42 1012.3
20260506132016 66 0.0 0.0 0.00 0.00 0.00 44 1012.2
20260506131516 66 0.0 0.0 0.00 0.00 0.00 44 1012.1
20260506131016 66 0.0 0.0 0.00 0.00 0.00 44 1012.0
20260506130516 67 0.0 0.0 0.00 0.00 0.00 44 1012.2
20260506130016 67 0.0 0.0 0.00 0.00 0.00 43 1012.1
20260506125516 67 0.0 0.0 0.00 0.00 0.00 43 1012.1
20260506125016 67 0.0 0.0 0.00 0.00 0.00 42 1012.0
20260506124516 67 0.0 0.0 0.00 0.00 0.00 42 1012.0
20260506124016 67 0.0 0.0 0.00 0.00 0.00 42 1011.9
20260506123516 67 0.0 0.0 0.00 0.00 0.00 42 1012.0
20260506123016 67 0.0 0.0 0.00 0.00 0.00 42 1012.0
20260506122516 68 0.0 0.0 0.00 0.00 0.00 41 1012.0
20260506122016 68 0.0 0.0 0.00 0.00 0.00 41 1011.7
20260506121516 68 0.0 0.0 0.00 0.00 0.00 40 1011.7
20260506121016 69 0.0 0.0 0.00 0.00 0.00 39 1011.7
20260506120516 68 0.0 0.0 0.00 0.00 0.00 39 1011.9
20260506120016 68 0.0 0.0 0.00 0.00 0.00 40 1011.8
20260506115516 68 0.0 0.0 0.00 0.00 0.00 41 1011.7
20260506115016 67 0.0 0.0 0.00 0.00 0.00 42 1011.4
20260506114516 67 0.0 0.0 0.00 0.00 0.00 42 1011.4
20260506114016 67 0.0 0.0 0.00 0.00 0.00 42 1011.3
20260506113516 67 0.0 0.0 0.00 0.00 0.00 42 1011.5
20260506113016 67 0.0 0.0 0.00 0.00 0.00 42 1011.4
20260506112516 68 0.0 0.0 0.00 0.00 0.00 42 1011.5
20260506112019 68 0.0 0.0 0.00 0.00 0.00 41 1011.3
20260506111516 68 0.0 0.0 0.00 0.00 0.00 41 1011.3
20260506111016 68 0.0 0.0 0.00 0.00 0.00 40 1011.2
20260506110516 68 0.0 0.0 0.00 0.00 0.00 39 1011.3
20260506110016 68 0.0 0.0 0.00 0.00 0.00 39 1011.4
20260506105516 68 0.0 0.0 0.00 0.00 0.00 39 1011.4
20260506105016 68 0.0 0.0 0.00 0.00 0.00 40 1011.5
20260506104516 68 0.0 0.0 0.00 0.00 0.00 40 1011.3
20260506104016 68 0.0 0.0 0.00 0.00 0.00 40 1011.0
20260506103516 68 0.0 0.0 0.00 0.00 0.00 40 1011.2
20260506103016 68 0.0 0.0 0.00 0.00 0.00 39 1011.2
20260506102516 68 0.0 0.0 0.00 0.00 0.00 39 1011.2
20260506102016 68 0.0 0.0 0.00 0.00 0.00 38 1011.2
20260506101517 69 0.0 0.0 0.00 0.00 0.00 37 1011.1
20260506101016 69 0.0 0.0 0.00 0.00 0.00 37 1011.0
20260506100517 69 0.0 0.0 0.00 0.00 0.00 37 1011.1
20260506100016 68 0.0 0.0 0.00 0.00 0.00 37 1011.1
20260506095516 68 0.0 0.0 0.00 0.00 0.00 38 1011.0
20260506095016 67 0.0 1.7 0.00 0.00 0.00 39 1010.9
20260506094516 66 0.0 0.0 0.00 0.00 0.00 42 1010.9
20260506094016 66 0.0 0.0 0.00 0.00 0.00 43 1010.9
20260506093516 66 0.0 0.0 0.00 0.00 0.00 42 1011.1
20260506093016 66 0.0 0.0 0.00 0.00 0.00 42 1011.1
20260506092516 66 0.0 0.0 0.00 0.00 0.00 41 1011.0
20260506092016 67 0.0 0.0 0.00 0.00 0.00 40 1011.1
20260506091516 67 0.0 0.0 0.00 0.00 0.00 40 1011.0
20260506091016 67 0.0 0.0 0.00 0.00 0.00 39 1011.1
20260506090516 68 0.0 0.0 0.00 0.00 0.00 38 1011.2
20260506090016 68 0.0 0.0 0.00 0.00 0.00 37 1011.2
20260506085516 68 0.0 0.0 0.00 0.00 0.00 36 1011.3
20260506085016 68 0.0 0.0 0.00 0.00 0.00 36 1011.3
20260506084516 69 0.0 0.0 0.00 0.00 0.00 36 1011.2
20260506084016 69 0.0 0.0 0.00 0.00 0.00 36 1011.2
20260506083516 69 0.0 0.0 0.00 0.00 0.00 36 1011.2
20260506083016 69 0.0 0.0 0.00 0.00 0.00 36 1011.2
20260506082516 69 0.0 0.0 0.00 0.00 0.00 36 1011.3
20260506082016 69 0.0 0.0 0.00 0.00 0.00 35 1011.3
20260506081516 69 0.0 0.0 0.00 0.00 0.00 35 1011.3
20260506081016 69 0.0 0.0 0.00 0.00 0.00 35 1011.4
20260506080516 70 0.0 0.0 0.00 0.00 0.00 34 1011.2
20260506073515 70 0.0 0.9 0.00 0.00 0.00 34 1011.2
20260506073016 70 0.0 0.0 0.00 0.00 0.00 34 1011.1
20260506072516 69 0.0 0.0 0.00 0.00 0.00 33 1011.1
20260506072016 70 0.0 0.0 0.00 0.00 0.00 32 1011.0
20260506071516 70 0.0 0.0 0.00 0.00 0.00 32 1010.9
20260506071016 70 0.0 0.0 0.00 0.00 0.00 32 1010.9
20260506070516 70 0.0 0.0 0.00 0.00 0.00 33 1011.0
20260506062515 70 0.0 0.0 0.00 0.00 0.00 34 1010.5
20260506062016 70 0.0 0.0 0.00 0.00 0.00 34 1010.5
20260506061516 70 0.0 0.0 0.00 0.00 0.00 34 1010.5
20260506061015 71 0.0 0.0 0.00 0.00 0.00 34 1010.7
20260506060516 71 0.0 0.0 0.00 0.00 0.00 33 1011.0
20260506051016 71 0.0 0.0 0.00 0.00 0.00 35 1010.7
20260506050518 71 0.0 0.0 0.00 0.00 0.00 35 1010.7
20260506045017 70 0.0 0.0 0.00 0.00 0.00 37 1010.3
20260506044517 70 0.0 0.0 0.00 0.00 0.00 38 1010.2
20260506044017 70 0.0 0.0 0.00 0.00 0.00 39 1010.4
20260506043517 69 0.0 0.0 0.00 0.00 0.00 39 1010.1
20260506043017 69 0.0 0.0 0.00 0.00 0.00 40 1010.2
20260506042516 69 0.0 0.0 0.00 0.00 0.00 40 1010.1
20260506042017 69 0.0 0.0 0.00 0.00 0.00 41 1010.0
20260506041517 69 0.0 0.0 0.00 0.00 0.00 41 1010.0
20260506041017 69 0.0 0.0 0.00 0.00 0.00 42 1009.9
20260506040516 69 0.0 0.0 0.00 0.00 0.00 42 1009.6
20260506040017 69 0.0 0.0 0.00 0.00 0.00 42 1009.9
20260506035517 69 0.0 0.0 0.00 0.00 0.00 41 1010.0
20260506035016 69 0.0 0.0 0.00 0.00 0.00 40 1009.7
20260506034517 70 0.0 0.0 0.00 0.00 0.00 39 1009.4
20260506034017 70 0.0 0.0 0.00 0.00 0.00 39 1009.1
20260506033517 70 0.0 0.0 0.00 0.00 0.00 39 1009.2
20260506033017 70 0.0 0.0 0.00 0.00 0.00 39 1009.4
20260506032516 70 0.0 0.0 0.00 0.00 0.00 38 1009.6
20260506032017 70 0.0 0.0 0.00 0.00 0.00 39 1009.5
20260506031517 71 0.0 0.0 0.00 0.00 0.00 38 1009.5
20260506031016 71 0.0 0.0 0.00 0.00 0.00 38 1009.5
20260506030516 72 0.0 0.0 0.00 0.00 0.00 37 1009.1
20260506030017 72 0.0 0.0 0.00 0.00 0.00 36 1008.8
20260506025517 73 0.0 0.0 0.00 0.00 0.00 34 1008.6
20260506025016 73 0.0 0.0 0.00 0.00 0.00 33 1008.7
20260506024517 74 0.0 0.0 0.00 0.00 0.00 33 1008.7
20260506024017 74 0.0 0.0 0.00 0.00 0.00 31 1008.7
20260506023517 75 0.0 0.0 0.00 0.00 0.00 31 1008.2
20260506023017 75 0.0 0.0 0.00 0.00 0.00 30 1008.3
20260506022516 75 0.0 0.0 0.00 0.00 0.00 29 1008.3
20260506022016 75 0.0 0.0 0.00 0.00 0.00 29 1008.1
20260506021517 75 0.0 0.0 0.00 0.00 0.00 28 1008.3
20260506021017 76 0.0 0.0 0.00 0.00 0.00 28 1008.3
20260506020517 76 0.0 0.0 0.00 0.00 0.00 27 1008.4
20260506020017 76 0.0 0.0 0.00 0.00 0.00 27 1008.2
20260506015516 76 0.0 0.0 0.00 0.00 0.00 26 1008.1
20260506015018 77 0.0 0.0 0.00 0.00 0.00 26 1008.1
20260506014517 77 0.0 0.0 0.00 0.00 0.00 26 1007.9
20260506014017 77 0.0 0.0 0.00 0.00 0.00 25 1007.9
20260506013516 78 0.0 0.0 0.00 0.00 0.00 25 1008.2
20260506013017 78 0.0 0.0 0.00 0.00 0.00 25 1008.1
20260506012516 78 0.0 0.0 0.00 0.00 0.00 24 1008.0
20260506012016 78 0.0 0.0 0.00 0.00 0.00 24 1007.9
20260506011520 79 0.0 0.0 0.00 0.00 0.00 24 1007.8
20260506011017 79 0.0 0.0 0.00 0.00 0.00 23 1008.1
20260506010516 79 0.0 0.0 0.00 0.00 0.00 23 1008.1
20260506010017 79 0.0 0.0 0.00 0.00 0.00 23 1008.0
20260506005517 80 0.0 0.0 0.00 0.00 0.00 22 1008.0
20260506005016 80 0.0 0.0 0.00 0.00 0.00 22 1007.9
20260506004516 80 0.0 0.0 0.00 0.00 0.00 22 1007.8
20260506004016 80 0.0 0.0 0.00 0.00 0.00 21 1008.0
20260506003517 80 0.0 3.5 0.00 0.00 0.00 21 1007.8
20260506003016 81 0.0 3.5 0.00 0.00 0.00 21 1007.8
20260506002517 81 0.0 5.2 0.00 0.00 0.00 21 1007.7
20260506002016 81 0 0.9 5.2 0.00 0.00 0.00 21 1007.9
20260506001517 81 23 0.9 3.5 0.00 0.00 0.00 20 1007.7
20260506001017 81 0.0 3.5 0.00 0.00 0.00 20 1007.7
20260506000517 81 0.0 0.0 0.00 0.00 0.00 20 1007.4
20260506000017 82 338 0.9 8.7 0.00 0.00 0.00 19 1007.5
20260505235517 82 0.0 0.0 0.00 0.00 0.00 20 1007.5
20260505235016 82 0.0 0.9 0.00 0.00 0.00 20 1007.6
20260505234516 82 0.0 4.3 0.00 0.00 0.00 19 1007.5
20260505234017 82 315 0.9 7.0 0.00 0.00 0.00 19 1007.6
20260505233516 82 0 0.9 5.2 0.00 0.00 0.00 19 1007.6
20260505233017 82 0.0 4.3 0.00 0.00 0.00 19 1007.6
20260505232517 82 315 0.9 6.1 0.00 0.00 0.00 19 1007.7
20260505232017 82 338 0.9 9.6 0.00 0.00 0.00 19 1007.6
20260505231517 83 338 0.9 9.6 0.00 0.00 0.00 19 1007.7
20260505231016 83 338 0.9 8.7 0.00 0.00 0.00 18 1007.9
20260505230517 83 0.0 0.9 0.00 0.00 0.00 19 1008.0
20260505230017 83 315 0.9 6.1 0.00 0.00 0.00 19 1007.9
20260505225517 83 0.0 5.2 0.00 0.00 0.00 19 1008.0
20260505225017 83 0.0 4.3 0.00 0.00 0.00 19 1007.9
20260505224517 84 0.0 2.6 0.00 0.00 0.00 19 1007.8
20260505224016 84 0.0 1.7 0.00 0.00 0.00 19 1007.9
20260505223519 84 0.0 3.5 0.00 0.00 0.00 19 1007.8
20260505223016 84 0.0 1.7 0.00 0.00 0.00 20 1008.0
20260505222516 84 0 0.9 4.3 0.00 0.00 0.00 20 1008.1
20260505222017 85 0 0.9 7.0 0.00 0.00 0.00 20 1008.4
20260505221517 85 0.0 5.2 0.00 0.00 0.00 21 1008.5
20260505221016 85 0.0 2.6 0.00 0.00 0.00 22 1008.5
20260505220516 85 0.0 4.3 0.00 0.00 0.00 22 1008.6
20260505220020 85 0.0 2.6 0.00 0.00 0.00 22 1008.6
20260505215516 85 0.0 1.7 0.00 0.00 0.00 22 1008.8
20260505215016 85 0.0 0.0 0.00 0.00 0.00 22 1008.7
20260505214517 85 0.0 1.7 0.00 0.00 0.00 21 1008.8
20260505214016 85 0.0 1.7 0.00 0.00 0.00 21 1008.9
20260505213517 85 0.0 0.0 0.00 0.00 0.00 22 1008.7
20260505213017 86 315 0.9 7.8 0.00 0.00 0.00 21 1008.8
20260505212517 86 338 0.9 5.2 0.00 0.00 0.00 22 1009.0
20260505212017 86 0.0 3.5 0.00 0.00 0.00 21 1009.0
20260505211517 87 0.0 3.5 0.00 0.00 0.00 21 1009.2
20260505211017 87 0 0.9 9.6 0.00 0.00 0.00 20 1009.2
20260505210516 87 0.0 3.5 0.00 0.00 0.00 20 1009.0
20260505210017 88 0.0 2.6 0.00 0.00 0.00 20 1009.0
20260505205517 88 0.0 5.2 0.00 0.00 0.00 20 1009.2
20260505205017 88 293 0.9 6.1 0.00 0.00 0.00 20 1009.3
20260505204516 87 0.0 0.0 0.00 0.00 0.00 21 1009.2
20260505204017 88 0.0 1.7 0.00 0.00 0.00 20 1009.4
20260505203517 87 0.0 2.6 0.00 0.00 0.00 21 1009.4
20260505203017 87 23 0.9 5.2 0.00 0.00 0.00 21 1009.4
20260505202516 87 315 0.9 6.1 0.00 0.00 0.00 21 1009.6
20260505202017 87 0.0 0.9 0.00 0.00 0.00 21 1009.6
20260505201516 87 0.0 0.0 0.00 0.00 0.00 21 1009.6
20260505201016 86 0.0 1.7 0.00 0.00 0.00 22 1009.5
20260505200517 87 315 0.9 5.2 0.00 0.00 0.00 21 1009.8
20260505200017 87 0.0 4.3 0.00 0.00 0.00 21 1009.7
20260505195516 87 0.0 2.6 0.00 0.00 0.00 21 1009.8
20260505195017 87 0.0 0.0 0.00 0.00 0.00 21 1009.9
20260505194517 87 0.0 3.5 0.00 0.00 0.00 20 1009.8
20260505194016 87 0.0 0.0 0.00 0.00 0.00 22 1009.7
20260505193516 86 0.0 0.9 0.00 0.00 0.00 21 1009.9
20260505193017 86 0.0 0.0 0.00 0.00 0.00 21 1009.9
20260505192516 86 0.0 0.0 0.00 0.00 0.00 21 1010.1
20260505192016 86 0.0 0.9 0.00 0.00 0.00 22 1010.2
20260505191516 86 0.0 0.0 0.00 0.00 0.00 23 1010.1
20260505191016 85 0.0 0.0 0.00 0.00 0.00 22 1010.0
20260505190516 85 0.0 0.9 0.00 0.00 0.00 22 1010.5
20260505190016 85 315 0.9 5.2 0.00 0.00 0.00 22 1010.3
20260505185516 84 315 0.9 8.7 0.00 0.00 0.00 22 1010.3
20260505185016 85 0.0 0.9 0.00 0.00 0.00 22 1010.5
20260505184516 85 0.0 3.5 0.00 0.00 0.00 23 1010.5
20260505184016 84 0.0 0.0 0.00 0.00 0.00 22 1010.4
20260505183516 84 0.0 5.2 0.00 0.00 0.00 22 1010.7
20260505183017 83 0.0 0.9 0.00 0.00 0.00 22 1010.8
20260505182517 84 315 0.9 5.2 0.00 0.00 0.00 22 1010.9
20260505182016 84 293 0.9 7.8 0.00 0.00 0.00 23 1010.8
20260505181516 84 293 0.9 6.1 0.00 0.00 0.00 22 1010.8
20260505181016 84 0.0 1.7 0.00 0.00 0.00 23 1010.9
20260505180516 83 0.0 1.7 0.00 0.00 0.00 23 1011.0
20260505180016 83 0.0 0.9 0.00 0.00 0.00 23 1011.1
20260505175516 83 315 0.9 5.2 0.00 0.00 0.00 23 1011.1
20260505175016 83 338 0.9 7.8 0.00 0.00 0.00 22 1011.2
20260505174516 83 0.0 5.2 0.00 0.00 0.00 23 1011.1
20260505174016 83 0.0 1.7 0.00 0.00 0.00 23 1011.3
20260505173518 83 315 1.7 13.0 0.00 0.00 0.00 22 1011.5
20260505173016 83 0.0 1.7 0.00 0.00 0.00 23 1011.3
20260505172517 83 315 0.9 7.0 0.00 0.00 0.00 23 1011.5
20260505172017 83 0.0 0.9 0.00 0.00 0.00 23 1011.5
20260505171517 82 0.0 4.3 0.00 0.00 0.00 23 1011.3
20260505171017 83 315 2.6 12.2 0.00 0.00 0.00 23 1011.5
20260505170516 83 0.0 4.3 0.00 0.00 0.00 24 1011.6
20260505170016 83 315 0.9 4.3 0.00 0.00 0.00 23 1011.5
20260505165516 82 0.0 0.9 0.00 0.00 0.00 23 1011.3
20260505165016 82 315 1.7 13.0 0.00 0.00 0.00 24 1011.4
20260505164516 82 0.0 1.7 0.00 0.00 0.00 23 1011.3
20260505164016 82 0.0 6.1 0.00 0.00 0.00 24 1011.1
20260505163517 81 338 0.9 6.1 0.00 0.00 0.00 25 1011.3
20260505163016 81 293 0.9 8.7 0.00 0.00 0.00 24 1011.4
20260505162516 81 315 0.9 6.1 0.00 0.00 0.00 24 1011.4
20260505162017 81 0.0 8.7 0.00 0.00 0.00 24 1011.3
20260505161518 81 315 0.9 11.3 0.00 0.00 0.00 23 1011.4
20260505161016 80 0.0 2.6 0.00 0.00 0.00 25 1011.2
20260505160516 80 0.0 7.8 0.00 0.00 0.00 24 1011.4
20260505153016 79 0.0 3.5 0.00 0.00 0.00 25 1011.1
20260505152516 79 315 0.9 7.8 0.00 0.00 0.00 25 1011.2
20260505152016 78 0.0 3.5 0.00 0.00 0.00 26 1011.0
20260505151516 78 0.0 4.3 0.00 0.00 0.00 27 1011.0
20260505151016 77 0.0 1.7 0.00 0.00 0.00 29 1011.0
20260505150517 76 0.0 1.7 0.00 0.00 0.00 31 1011.2
20260505140517 69 0.0 0.0 0.00 0.00 0.00 41 1010.4